Weather History for KMLI - January, 2012

Change the Weather History Date:

Wednesday, January 11, 2012

  Actual Average Record
Temperature  
Mean Temperature 39 °F 22 °F  
Max Temperature 56 °F 31 °F 56 °F (1880)
Min Temperature 21 °F 14 °F -17 °F (1979)
Degree Days  
Heating Degree Days 26 42  
Month to date heating degree days 342 462  
Since 1 July heating degree days 2460 2883  
Cooling Degree Days 0 0  
Month to date cooling degree days 0 0  
Year to date cooling degree days 0 0  
Moisture  
Dew Point 25 °F    
Average Humidity 62    
Maximum Humidity 92    
Minimum Humidity 32    
Precipitation  
Precipitation 0.00 in 0.05 in 0.92 in (1960)
Month to date precipitation 0.14 0.57  
Year to date precipitation 0.14 0.57  
Snow  
Snow 0.00 in 0.30 in - ()
Month to date snowfall T 3.4  
Since 1 July snowfall 1.4 13.9  
Snow Depth 0.00 in    
Sea Level Pressure  
Sea Level Pressure 29.64 in    
Wind  
Wind Speed 7 mph (WNW)    
Max Wind Speed 25 mph    
Max Gust Speed 31 mph    
Visibility 10 miles    
Events      
T = Trace of Precipitation, MM = Missing Value Source: NWS Daily Summary

Daily Weather History Graph

Daily Weather History Graph

Search for Another Location

Airport or City:

Trip Planner

Search our weather history database for the weather conditions in past years. The results will help you decide how hot, cold, wet, or windy it might be!

Date:

Astronomy

Jan. 11, 2012 Rise Set
Actual Time 7:27 AM CST 4:52 PM CST
Civil Twilight 6:56 AM CST 5:23 PM CST
Nautical Twilight 6:22 AM CST 5:57 PM CST
Astronomical Twilight 5:49 AM CST 6:30 PM CST
Moon 7:53 PM CST (1/11) 8:37 AM CST (1/11)
Length of Visible Light 10h 26m
Length of Day
9h 24m
Waning Gibbous, 93% of the Moon is Illuminated
Jan 11
Waning Gibbous
Jan 16
Last Quarter
Jan 23
New
Jan 30
First Quarter
Feb 7
Full

Hourly Weather History & Observations

Time (CST) Temp. Windchill Dew Point Humidity Pressure Visibility Wind Dir Wind Speed Gust Speed Precip Events Conditions
12:52 AM 28.0 °F - 23.0 °F 81% 29.75 in 10.0 mi Calm Calm - N/A   Clear
1:52 AM 26.1 °F - 21.9 °F 84% 29.73 in 10.0 mi Calm Calm - N/A   Clear
2:52 AM 26.1 °F 21.9 °F 21.0 °F 81% 29.71 in 10.0 mi North 3.5 mph - N/A   Clear
3:52 AM 23.0 °F - 19.9 °F 88% 29.70 in 10.0 mi Calm Calm - N/A   Clear
4:52 AM 24.8 °F - 19.4 °F 80% 29.67 in 10.0 mi Calm Calm - N/A   Clear
5:52 AM 21.9 °F - 19.0 °F 89% 29.69 in 10.0 mi Calm Calm - N/A   Clear
6:52 AM 21.0 °F 16.2 °F 19.0 °F 92% 29.68 in 10.0 mi ESE 3.5 mph - N/A   Clear
7:52 AM 21.9 °F - 18.0 °F 85% 29.67 in 10.0 mi Calm Calm - N/A   Clear
8:52 AM 28.9 °F - 25.0 °F 85% 29.67 in 9.0 mi Calm Calm - N/A   Clear
9:52 AM 37.0 °F - 28.0 °F 70% 29.67 in 10.0 mi Calm Calm - N/A   Clear
10:52 AM 45.0 °F - 27.0 °F 49% 29.64 in 10.0 mi Calm Calm - N/A   Clear
11:52 AM 50.0 °F - 26.1 °F 39% 29.61 in 10.0 mi Calm Calm - N/A   Clear
12:52 PM 53.1 °F - 24.1 °F 32% 29.57 in 10.0 mi NW 3.5 mph - N/A   Clear
1:52 PM 54.0 °F - 27.0 °F 35% 29.56 in 10.0 mi WNW 4.6 mph - N/A   Clear
2:52 PM 55.0 °F - 27.0 °F 34% 29.55 in 10.0 mi WNW 6.9 mph - N/A   Clear
3:52 PM 53.1 °F - 25.0 °F 34% 29.56 in 10.0 mi WNW 6.9 mph - N/A   Clear
4:52 PM 43.0 °F 41.3 °F 26.1 °F 51% 29.57 in 10.0 mi West 3.5 mph - N/A   Clear
5:52 PM 45.0 °F 38.2 °F 30.0 °F 56% 29.58 in 10.0 mi NW 15.0 mph - N/A   Clear
6:52 PM 39.9 °F 32.1 °F 32.0 °F 73% 29.60 in 10.0 mi WNW 13.8 mph 21.9 mph N/A   Clear
7:52 PM 37.9 °F 29.2 °F 32.0 °F 79% 29.62 in 10.0 mi WNW 15.0 mph - N/A   Scattered Clouds
8:03 PM 37.4 °F 28.9 °F 32.0 °F 81% 29.61 in 10.0 mi WNW 13.8 mph 21.9 mph N/A   Mostly Cloudy
8:52 PM 37.0 °F 26.7 °F 30.0 °F 76% 29.63 in 10.0 mi WNW 19.6 mph 26.5 mph N/A   Overcast
9:52 PM 32.0 °F 20.1 °F 26.1 °F 79% 29.64 in 10.0 mi NW 19.6 mph 26.5 mph N/A   Overcast
10:52 PM 30.0 °F 17.5 °F 23.0 °F 75% 29.65 in 10.0 mi WNW 19.6 mph 28.8 mph N/A   Overcast
11:52 PM 28.0 °F 14.3 °F 21.0 °F 75% 29.65 in 10.0 mi NW 21.9 mph 29.9 mph N/A   Overcast